Simultaneous Nadir Overpasses (SNOs) Predictions

Prediction of SNOs between GOES-16 and NPP Satellite Orbit:

Table of predicted SNOs for the next 14.0 days since TLE Epoch: 4/27/2024
Index Date Time (GOES-16) GOES-16 Lat,Lon NPP Lat,Lon Distance(km) Time Diff (sec)
1 04/27/2024 06:11:46 -0.03, -75.21 -0.75, -72.11 353.32 80
2 04/28/2024 18:33:42 0.02, -75.21 -0.47, -77.41 250.45 80
3 04/29/2024 18:17:36 0.02, -75.21 0.53, -72.87 266.44 80
4 05/01/2024 06:39:24 -0.02, -75.22 0.61, -78.15 333.14 80
5 05/02/2024 06:17:58 -0.02, -75.22 -0.39, -73.61 184.05 80
6 05/03/2024 18:39:53 0.01, -75.24 -0.81, -78.91 418.64 80
7 05/04/2024 18:23:48 0.01, -75.25 0.20, -74.38 99.17 80
8 05/06/2024 06:45:34 -0.01, -75.27 0.98, -79.64 498.80 80
9 05/07/2024 06:24:09 -0.01, -75.28 -0.04, -75.11 19.18 80
10 05/09/2024 18:27:19 0.01, -75.31 -0.10, -75.88 64.39 80
11 05/10/2024 18:11:13 0.01, -75.33 0.93, -71.35 454.18 80
